George, South Africa

8:04 PM SAST on September 28, 2016 (GMT +0200)
George

Weather History for FAGG - March, 2012

Change the Weather History Date:

Friday, March 30, 2012

  Actual Average Record
Temperature  
Mean Temperature 62 °F -  
Max Temperature 70 °F 74 °F 98 °F (2006)
Min Temperature 55 °F 57 °F 53 °F (2002)
Degree Days  
Heating Degree Days 2    
Growing Degree Days 12 (Base 50)    
Moisture  
Dew Point 57 °F    
Average Humidity 91    
Maximum Humidity 100    
Minimum Humidity 62    
Precipitation  
Precipitation 1.02 in - - ()
Sea Level Pressure  
Sea Level Pressure 29.89 in    
Wind  
Wind Speed 12 mph ()    
Max Wind Speed 32 mph    
Max Gust Speed -    
Visibility 4.7 miles    
Events Rain    
Averages and records for this station are not official NWS values.
T = Trace of Precipitation, MM = Missing Value Source: Averaged Metar Reports

Daily Weather History Graph

Daily Weather History Graph

Search for Another Location

Airport or City:

Trip Planner

Search our weather history database for the weather conditions in past years. The results will help you decide how hot, cold, wet, or windy it might be!

Date:

Astronomy

Mar. 30, 2012 Rise Set
Actual Time 6:41 AM SAST 6:27 PM SAST
Civil Twilight 6:16 AM SAST 6:52 PM SAST
Nautical Twilight 5:47 AM SAST 7:21 PM SAST
Astronomical Twilight 5:18 AM SAST 7:50 PM SAST
Moon 1:23 PM SAST (3/30) 11:47 PM SAST (3/30)
Length of Visible Light 12h 36m
Length of Day
11h 46m
Waxing Crescent, 46% of the Moon is Illuminated
Mar 30
Waxing Crescent
Mar 30
First Quarter
Apr 6
Full
Apr 13
Last Quarter
Apr 21
New

Hourly Weather History & Observations

Time (SAST) Temp. Dew Point Humidity Pressure Visibility Wind Dir Wind Speed Gust Speed Precip Events Conditions
12:00 AM 66.2 °F 60.8 °F 83% 29.74 in 6.2 mi Variable 2.3 mph - N/A   Mostly Cloudy
1:00 AM 64.4 °F 60.8 °F 88% 29.74 in 6.2 mi West 4.6 mph - N/A Rain Light Rain
2:00 AM 64 °F 61 °F 87% 29.76 in 12 mi West 16.1 mph - -  
2:00 AM 64.4 °F 60.8 °F 88% 29.77 in 6.2 mi West 15.0 mph - N/A Rain Light Rain
4:00 AM 60.8 °F 59.0 °F 94% 29.77 in 6.2 mi WNW 12.7 mph - N/A Rain Rain
5:00 AM 60 °F 57 °F 87% 29.77 in 12 mi WNW 13.8 mph - - Rain Light Rain
5:00 AM 60.8 °F 57.2 °F 88% 29.77 in 6.2 mi WNW 12.7 mph - N/A   Scattered Clouds
6:00 AM 60.8 °F 57.2 °F 88% 29.77 in - WNW 12.7 mph - N/A   Clear
7:00 AM 60.8 °F 57.2 °F 88% 29.80 in 6.2 mi NW 10.4 mph - N/A   Partly Cloudy
8:00 AM 61 °F 56 °F 80% 29.82 in 12 mi WNW 11.5 mph - -   Partly Cloudy
8:00 AM 60.8 °F 57.2 °F 88% 29.80 in 6.2 mi WNW 11.5 mph - N/A   Scattered Clouds
10:00 AM 62.6 °F 57.2 °F 82% 29.83 in 6.2 mi West 16.1 mph - N/A   Scattered Clouds
11:00 AM 66 °F 56 °F 62% 29.84 in 12 mi West 15.0 mph - -   Partly Cloudy
11:00 AM 66.2 °F 55.4 °F 68% 29.83 in 6.2 mi West 15.0 mph - N/A   Scattered Clouds
11:41 AM 64.4 °F 57.2 °F 77% 29.83 in 6.2 mi West 32.2 mph - N/A   Mostly Cloudy
11:54 AM 62.6 °F 57.2 °F 82% 29.86 in 1.9 mi West 25.3 mph - N/A Rain Light Rain
12:03 PM 59.0 °F 57.2 °F 94% 29.86 in 0.7 mi West 24.2 mph - N/A Rain Rain
12:10 PM 59.0 °F 57.2 °F 94% 29.86 in 1.2 mi West 20.7 mph - N/A Rain Rain
12:15 PM 59.0 °F 59.0 °F 100% 29.86 in - West 17.3 mph - N/A Rain Light Rain
12:26 PM 60.8 °F 59.0 °F 94% 29.86 in 1.2 mi West 12.7 mph - N/A Rain Light Rain
12:27 PM 60.8 °F 59.0 °F 94% 29.86 in 0.8 mi WSW 12.7 mph - N/A Rain Rain
12:36 PM 59.0 °F 59.0 °F 100% 29.86 in 1.3 mi SW 17.3 mph - N/A Rain Rain
12:40 PM 59.0 °F 59.0 °F 100% 29.86 in - SW 19.6 mph - N/A Rain Light Rain
12:46 PM 59.0 °F 59.0 °F 100% 29.86 in 3.7 mi SW 23.0 mph - N/A Rain Light Rain
1:00 PM 60.8 °F 59.0 °F 94% 29.89 in 5.6 mi SW 21.9 mph - N/A   Mostly Cloudy
1:05 PM 60.8 °F 57.2 °F 88% 29.89 in 3.1 mi SW 18.4 mph - N/A Rain Light Rain
1:06 PM 59.0 °F 57.2 °F 94% 29.89 in 1.6 mi SW 17.3 mph - N/A Rain Rain
1:24 PM 57.2 °F 55.4 °F 94% 29.89 in - SW 21.9 mph - N/A Rain Light Rain
1:40 PM 59.0 °F 57.2 °F 94% 29.89 in 3.7 mi SW 13.8 mph - N/A Rain Light Rain
1:43 PM 59.0 °F 57.2 °F 94% 29.89 in 1.7 mi SW 13.8 mph - N/A Rain Light Rain
1:51 PM 59.0 °F 57.2 °F 94% 29.89 in - WSW 16.1 mph - N/A Rain Light Rain
2:00 PM 58 °F 57 °F 95% 29.91 in 2 mi WSW 16.1 mph - - Rain Rain
2:00 PM 59.0 °F 57.2 °F 94% 29.89 in - WSW 16.1 mph - N/A Rain Rain
2:10 PM 59.0 °F 57.2 °F 94% 29.92 in 3.1 mi SW 12.7 mph - N/A Rain Light Rain
2:27 PM 57.2 °F 57.2 °F 100% 29.92 in 3.1 mi SW 19.6 mph - N/A Rain Light Rain
2:33 PM 57.2 °F 57.2 °F 100% 29.92 in - SW 18.4 mph - N/A Rain Rain
2:44 PM 59.0 °F 57.2 °F 94% 29.92 in 3.7 mi WSW 17.3 mph - N/A Rain Rain
3:00 PM 59.0 °F 59.0 °F 100% 29.92 in 3.7 mi SW 17.3 mph - N/A Rain Light Rain
3:03 PM 59.0 °F 57.2 °F 94% 29.92 in 5.6 mi SW 17.3 mph - N/A Rain Light Rain
3:46 PM 60.8 °F 57.2 °F 88% 29.95 in 2.8 mi SSW 11.5 mph - N/A Rain Light Rain
4:00 PM 59.0 °F 55.4 °F 88% 29.95 in 3.7 mi SSW 12.7 mph - N/A Rain Light Rain
5:00 PM 61 °F 56 °F 80% 29.98 in 6 mi SW 4.6 mph - - Rain Light Rain
5:00 PM 60.8 °F 57.2 °F 88% 29.95 in 6.2 mi WSW 4.6 mph - N/A   Mostly Cloudy
5:17 PM 57.2 °F 57.2 °F 100% 29.98 in 3.1 mi WNW 8.1 mph - N/A Rain Rain
5:21 PM 57.2 °F 57.2 °F 100% 29.98 in 1.9 mi West 6.9 mph - N/A Rain Rain
5:50 PM 55.4 °F 55.4 °F 100% 30.01 in 3.1 mi WSW 5.8 mph - N/A Rain Rain
6:00 PM 55.4 °F 55.4 °F 100% 30.01 in 3.1 mi WSW 5.8 mph - N/A Rain Rain
6:35 PM 57.2 °F 55.4 °F 94% 30.01 in 1.7 mi NW 8.1 mph - N/A Rain Rain
7:00 PM 57.2 °F 55.4 °F 94% 30.04 in 3.1 mi SSW 8.1 mph - N/A Rain Rain
7:22 PM 57.2 °F 55.4 °F 94% 30.04 in 3.7 mi Variable 2.3 mph - N/A Rain Rain
8:00 PM 57 °F 56 °F 97% 30.07 in 6 mi North 6.9 mph - - Rain Light Rain
8:00 PM 57.2 °F 57.2 °F 100% 30.06 in 6.2 mi North 5.8 mph - N/A Rain Light Rain
9:00 PM 57.2 °F 55.4 °F 94% 30.09 in 6.2 mi NW 9.2 mph - N/A   Mostly Cloudy